Location: Gleizolles
(44.4833°N, 6.7667°E)
Time: 15:30:59
(UTC+00:00)

Altair - Pass Details

Date: 25 June 2024
Orbit: 1502 x 1681 km, 47.2° (Epoch: 13 July)

Event Time Altitude Azimuth Distance (km) Brightness Sun altitude
Rises 00:03:38 0° 222° (SW) 4,623 - -21.8°
Reaches altitude 10° 00:06:43 10° 218° (SW) 3,646 - -21.8°
Exits shadow 00:11:14 32° 203° (SSW) 2,361 7.9 -21.6°
Maximum altitude 00:15:31 55° 144° (SE) 1,781 7.5 -21.5°
Drops below altitude 10° 00:24:33 10° 70° (ENE) 3,736 9.9 -21.2°
Sets 00:27:44 0° 66° (ENE) 4,745 10.6 -21.1°
